Location: Bennemühlen
(52.5740°N, 9.7135°E)
Time: 19:37:57
(UTC+00:00)

A-11 Canister half - Pass Details

Date: 26 February 2026
Orbit: 1512 x 1687 km, 47.2° (Epoch: 8 March)

Event Time Altitude Azimuth Distance (km) Brightness Sun altitude
Rises 23:58:40 0° 284° (WNW) 4,926 11.7 -45.9°
Enters shadow 00:00:59 - 280° (W) 4,245 11.3 -45.9°
Reaches altitude 10° 00:02:07 10° 278° (W) 3,921 - -45.8°
Maximum altitude 00:11:03 39° 214° (SW) 2,283 - -45.6°
Drops below altitude 10° 00:19:43 10° 151° (SSE) 3,792 - -45.2°
Sets 00:23:01 0° 143° (SE) 4,750 - -45.1°
